Location: Grandview
(34.8900°N, 117.1058°W)
Time: 15:14:58
(UTC-07:00)

Tiangong 1 - Pass Details

Date: 16 October 2017
Orbit: 293 x 320 km, 42.8° (Epoch: 18 October)

Event Time Altitude Azimuth Distance (km) Brightness Sun altitude
Rises 18:53:50 0° 299° (WNW) 2,041 5.8 -9.4°
Reaches altitude 10° 18:55:50 10° 301° (WNW) 1,205 4.5 -9.8°
Maximum altitude 18:58:31 71° 27° (NNE) 331 0.6 -10.3°
Enters shadow 19:00:26 17° 109° (ESE) 887 2.3 -10.7°
